Time,TemperatureF,DewpointF,PressureIn,WindDirection,WindDirectionDegrees,WindSpeedMPH,WindSpeedGustMPH,Humidity,HourlyPrecipIn,Conditions,Clouds,dailyrainin,SoftwareType,DateUTC
2013-04-03 00:00:00,49.0,45.9,30.11,WNW,292,0.0,1.0,89,0.00,,---,0.00,VWS V14.01,2013-04-03 07:00:00,
2013-04-03 00:10:00,48.8,46.0,30.12,WNW,292,0.0,1.0,90,0.00,,---,0.00,VWS V14.01,2013-04-03 07:10:00,
2013-04-03 00:20:00,48.7,45.6,30.11,WNW,292,0.0,1.0,89,0.00,,---,0.00,VWS V14.01,2013-04-03 07:20:00,
2013-04-03 00:30:00,48.5,45.7,30.12,WNW,292,0.0,1.0,90,0.00,,---,0.00,VWS V14.01,2013-04-03 07:30:00,
2013-04-03 00:40:00,48.1,45.3,30.12,WNW,292,0.0,1.0,90,0.00,,---,0.00,VWS V14.01,2013-04-03 07:40:00,
2013-04-03 00:50:00,48.0,45.2,30.12,WNW,292,0.0,0.0,90,0.00,,---,0.00,VWS V14.01,2013-04-03 07:50:00,
2013-04-03 01:00:00,47.8,45.0,30.12,WNW,292,0.0,0.0,90,0.00,,---,0.00,VWS V14.01,2013-04-03 08:00:00,
2013-04-03 01:10:00,47.5,44.7,30.12,WNW,292,0.0,1.0,90,0.00,,---,0.00,VWS V14.01,2013-04-03 08:10:00,
2013-04-03 01:20:00,47.4,44.9,30.13,WNW,292,0.0,1.0,91,0.00,,---,0.00,VWS V14.01,2013-04-03 08:20:00,
2013-04-03 01:30:00,47.4,44.9,30.13,WNW,292,0.0,1.0,91,0.00,,---,0.00,VWS V14.01,2013-04-03 08:30:00,
2013-04-03 01:40:00,47.2,44.7,30.12,WNW,292,0.0,0.0,91,0.00,,---,0.00,VWS V14.01,2013-04-03 08:40:00,
2013-04-03 01:50:00,47.0,44.5,30.12,WNW,292,0.0,0.0,91,0.00,,---,0.00,VWS V14.01,2013-04-03 08:50:00,
2013-04-03 02:00:00,46.7,44.2,30.11,WNW,292,0.0,0.0,91,0.00,,---,0.00,VWS V14.01,2013-04-03 09:00:00,
2013-04-03 02:10:00,46.7,44.2,30.11,WNW,292,0.0,0.0,91,0.00,,---,0.00,VWS V14.01,2013-04-03 09:10:00,
2013-04-03 02:20:00,46.5,44.3,30.12,WNW,292,0.0,0.0,92,0.00,,---,0.00,VWS V14.01,2013-04-03 09:20:00,
2013-04-03 02:30:00,46.3,44.1,30.12,WNW,292,0.0,1.0,92,0.00,,---,0.00,VWS V14.01,2013-04-03 09:30:00,
2013-04-03 02:40:00,46.1,43.9,30.11,WNW,292,0.0,1.0,92,0.00,,---,0.00,VWS V14.01,2013-04-03 09:40:00,
2013-04-03 02:50:00,46.1,43.9,30.11,WNW,292,0.0,1.0,92,0.00,,---,0.00,VWS V14.01,2013-04-03 09:50:00,
2013-04-03 03:00:00,46.1,43.9,30.10,WNW,292,0.0,0.0,92,0.00,,---,0.00,VWS V14.01,2013-04-03 10:00:00,
2013-04-03 03:10:00,45.8,43.6,30.10,WNW,292,0.0,1.0,92,0.00,,---,0.00,VWS V14.01,2013-04-03 10:10:00,
2013-04-03 03:20:00,45.8,43.6,30.10,WNW,292,0.0,0.0,92,0.00,,---,0.00,VWS V14.01,2013-04-03 10:20:00,
2013-04-03 03:30:00,45.7,43.5,30.10,WNW,292,0.0,1.0,92,0.00,,---,0.00,VWS V14.01,2013-04-03 10:30:00,
2013-04-03 03:40:00,45.8,43.9,30.10,WNW,292,0.0,0.0,93,0.00,,---,0.00,VWS V14.01,2013-04-03 10:40:00,
2013-04-03 03:50:00,45.8,43.9,30.10,WNW,292,0.0,0.0,93,0.00,,---,0.00,VWS V14.01,2013-04-03 10:50:00,
2013-04-03 04:00:00,45.9,44.0,30.10,WNW,292,0.0,0.0,93,0.00,,---,0.00,VWS V14.01,2013-04-03 11:00:00,
2013-04-03 04:10:00,45.6,43.7,30.09,WNW,292,0.0,1.0,93,0.00,,---,0.00,VWS V14.01,2013-04-03 11:10:00,
2013-04-03 04:20:00,45.7,43.8,30.09,WNW,292,0.0,1.0,93,0.00,,---,0.00,VWS V14.01,2013-04-03 11:20:00,
2013-04-03 04:30:00,45.5,43.6,30.09,WNW,292,0.0,0.0,93,0.00,,---,0.00,VWS V14.01,2013-04-03 11:30:00,
2013-04-03 04:40:00,45.3,43.4,30.09,WNW,292,0.0,1.0,93,0.00,,---,0.00,VWS V14.01,2013-04-03 11:40:00,
2013-04-03 04:50:00,45.4,43.5,30.09,WNW,292,0.0,0.0,93,0.00,,---,0.00,VWS V14.01,2013-04-03 11:50:00,
2013-04-03 05:00:00,45.4,43.5,30.09,WNW,292,0.0,1.0,93,0.00,,---,0.00,VWS V14.01,2013-04-03 12:00:00,
2013-04-03 05:10:00,45.6,43.7,30.09,SSW,202,0.0,1.0,93,0.00,,---,0.00,VWS V14.01,2013-04-03 12:10:00,
2013-04-03 05:20:00,45.5,43.6,30.09,SSW,202,0.0,0.0,93,0.00,,---,0.00,VWS V14.01,2013-04-03 12:20:00,
2013-04-03 05:30:00,45.5,43.6,30.09,SSW,202,0.0,0.0,93,0.00,,---,0.00,VWS V14.01,2013-04-03 12:30:00,
2013-04-03 05:40:00,45.5,43.6,30.09,SSW,202,0.0,0.0,93,0.00,,---,0.00,VWS V14.01,2013-04-03 12:40:00,
2013-04-03 05:50:00,45.5,43.6,30.08,SSW,202,0.0,0.0,93,0.00,,---,0.00,VWS V14.01,2013-04-03 12:50:00,
2013-04-03 06:00:00,45.5,43.6,30.08,SSW,202,0.0,0.0,93,0.00,,---,0.00,VWS V14.01,2013-04-03 13:00:00,
2013-04-03 06:10:00,45.5,43.6,30.08,SSW,202,0.0,0.0,93,0.00,,---,0.00,VWS V14.01,2013-04-03 13:10:00,
2013-04-03 06:20:00,45.5,43.6,30.08,SSW,202,0.0,0.0,93,0.00,,---,0.00,VWS V14.01,2013-04-03 13:20:00,
2013-04-03 06:30:00,45.5,43.6,30.09,SSW,202,0.0,0.0,93,0.00,,---,0.00,VWS V14.01,2013-04-03 13:30:00,
2013-04-03 06:40:00,45.5,43.6,30.09,SSW,202,0.0,0.0,93,0.00,,---,0.00,VWS V14.01,2013-04-03 13:40:00,
2013-04-03 06:50:00,45.5,43.6,30.10,SSW,202,0.0,0.0,93,0.00,,---,0.00,VWS V14.01,2013-04-03 13:50:00,
2013-04-03 07:00:00,45.5,43.6,30.10,SSW,202,0.0,0.0,93,0.00,,---,0.00,VWS V14.01,2013-04-03 14:00:00,
2013-04-03 07:10:00,45.5,43.6,30.10,SSW,202,0.0,0.0,93,0.00,,---,0.00,VWS V14.01,2013-04-03 14:10:00,
2013-04-03 07:20:00,45.5,43.6,30.10,SSW,202,0.0,0.0,93,0.00,,---,0.00,VWS V14.01,2013-04-03 14:20:00,
2013-04-03 07:30:00,45.5,43.6,30.10,SSW,202,0.0,0.0,93,0.00,,---,0.00,VWS V14.01,2013-04-03 14:30:00,
2013-04-03 07:40:00,46.5,44.9,30.10,SSW,202,0.0,0.0,94,0.00,,---,0.00,VWS V14.01,2013-04-03 14:40:00,
2013-04-03 07:50:00,46.7,45.1,30.11,ESE,112,0.0,1.0,94,0.00,,---,0.00,VWS V14.01,2013-04-03 14:50:00,
2013-04-03 08:00:00,46.9,45.5,30.11,ESE,112,0.0,1.0,95,0.00,,---,0.00,VWS V14.01,2013-04-03 15:00:00,
2013-04-03 08:10:00,47.9,46.5,30.10,ESE,112,0.0,1.0,95,0.00,,---,0.00,VWS V14.01,2013-04-03 15:10:00,
2013-04-03 08:20:00,48.4,47.0,30.11,ESE,112,0.0,1.0,95,0.00,,---,0.00,VWS V14.01,2013-04-03 15:20:00,
2013-04-03 08:30:00,48.7,47.3,30.11,ESE,112,0.0,1.0,95,0.00,,---,0.00,VWS V14.01,2013-04-03 15:30:00,
2013-04-03 09:15:00,52.1,50.1,30.11,ESE,109,0.0,0.0,93,0.00,,---,0.00,VWS V14.01,2013-04-03 16:15:00,
2013-04-03 09:20:00,52.4,50.4,30.11,ENE,69,0.0,1.0,93,0.00,,---,0.00,VWS V14.01,2013-04-03 16:20:00,
2013-04-03 09:25:00,52.6,50.0,30.11,ENE,69,0.0,0.0,91,0.00,,---,0.00,VWS V14.01,2013-04-03 16:25:00,
2013-04-03 09:30:00,53.2,50.3,30.10,ENE,74,0.0,0.0,90,0.00,,---,0.00,VWS V14.01,2013-04-03 16:30:00,
2013-04-03 09:35:00,54.3,50.5,30.11,ENE,74,0.0,1.0,87,0.00,,---,0.00,VWS V14.01,2013-04-03 16:35:00,
2013-04-03 09:40:00,55.3,50.9,30.11,ENE,74,0.0,1.0,85,0.00,,---,0.00,VWS V14.01,2013-04-03 16:40:00,
2013-04-03 09:45:00,56.2,51.4,30.11,ENE,67,1.0,1.0,84,0.00,,---,0.00,VWS V14.01,2013-04-03 16:45:00,
2013-04-03 09:50:00,57.3,51.5,30.11,NNE,19,0.0,2.0,81,0.00,,---,0.00,VWS V14.01,2013-04-03 16:50:00,
2013-04-03 09:55:00,58.0,51.5,30.11,NNE,20,1.0,2.0,79,0.00,,---,0.00,VWS V14.01,2013-04-03 16:55:00,
2013-04-03 10:00:00,58.4,51.6,30.11,NNE,22,0.0,2.0,78,0.00,,---,0.00,VWS V14.01,2013-04-03 17:00:00,
2013-04-03 10:05:00,59.0,51.5,30.11,South,170,1.0,1.0,76,0.00,,---,0.00,VWS V14.01,2013-04-03 17:05:00,
2013-04-03 10:10:00,59.6,51.3,30.11,NNW,345,1.0,3.0,74,0.00,,---,0.00,VWS V14.01,2013-04-03 17:10:00,
2013-04-03 10:15:00,60.2,51.5,30.11,ESE,104,0.0,1.0,73,0.00,,---,0.00,VWS V14.01,2013-04-03 17:15:00,
2013-04-03 10:20:00,61.1,52.0,30.10,ENE,75,0.0,2.0,72,0.00,,---,0.00,VWS V14.01,2013-04-03 17:20:00,
2013-04-03 10:25:00,62.1,51.8,30.11,East,98,2.0,2.0,69,0.00,,---,0.00,VWS V14.01,2013-04-03 17:25:00,
2013-04-03 10:30:00,62.8,51.7,30.10,ESE,120,0.0,3.0,67,0.00,,---,0.00,VWS V14.01,2013-04-03 17:30:00,
2013-04-03 10:35:00,63.4,51.9,30.10,SSW,206,0.0,1.0,66,0.00,,---,0.00,VWS V14.01,2013-04-03 17:35:00,
2013-04-03 10:40:00,63.4,51.4,30.10,NNW,342,0.0,1.0,65,0.00,,---,0.00,VWS V14.01,2013-04-03 17:40:00,
2013-04-03 10:45:00,63.8,51.4,30.10,ENE,74,0.0,2.0,64,0.00,,---,0.00,VWS V14.01,2013-04-03 17:45:00,
2013-04-03 10:50:00,64.4,51.5,30.10,East,82,0.0,2.0,63,0.00,,---,0.00,VWS V14.01,2013-04-03 17:50:00,
2013-04-03 10:55:00,65.2,51.4,30.10,ENE,74,0.0,2.0,61,0.00,,---,0.00,VWS V14.01,2013-04-03 17:55:00,
2013-04-03 11:00:00,65.4,51.6,30.09,East,91,0.0,3.0,61,0.00,,---,0.00,VWS V14.01,2013-04-03 18:00:00,
2013-04-03 11:05:00,65.7,51.9,30.09,NE,47,0.0,2.0,61,0.00,,---,0.00,VWS V14.01,2013-04-03 18:05:00,
2013-04-03 11:10:00,66.3,52.0,30.09,East,88,1.0,2.0,60,0.00,,---,0.00,VWS V14.01,2013-04-03 18:10:00,
2013-04-03 11:15:00,67.2,52.4,30.09,SE,127,0.0,3.0,59,0.00,,---,0.00,VWS V14.01,2013-04-03 18:15:00,
2013-04-03 11:20:00,67.6,51.8,30.09,NE,52,0.0,4.0,57,0.00,,---,0.00,VWS V14.01,2013-04-03 18:20:00,
2013-04-03 11:25:00,67.8,51.1,30.09,NNE,22,0.0,4.0,55,0.00,,---,0.00,VWS V14.01,2013-04-03 18:25:00,
2013-04-03 11:30:00,68.2,50.9,30.09,NE,49,0.0,4.0,54,0.00,,---,0.00,VWS V14.01,2013-04-03 18:30:00,
2013-04-03 11:35:00,68.9,51.6,30.09,ESE,123,0.0,3.0,54,0.00,,---,0.00,VWS V14.01,2013-04-03 18:35:00,
2013-04-03 11:40:00,69.5,51.1,30.08,WSW,256,1.0,5.0,52,0.00,,---,0.00,VWS V14.01,2013-04-03 18:40:00,
2013-04-03 11:45:00,69.5,51.6,30.08,ENE,57,1.0,3.0,53,0.00,,---,0.00,VWS V14.01,2013-04-03 18:45:00,
2013-04-03 11:50:00,69.9,51.5,30.08,East,80,2.0,3.0,52,0.00,,---,0.00,VWS V14.01,2013-04-03 18:50:00,
2013-04-03 11:55:00,70.8,51.3,30.08,NW,313,0.0,2.0,50,0.00,,---,0.00,VWS V14.01,2013-04-03 18:55:00,
2013-04-03 12:00:00,71.7,51.0,30.08,East,94,0.0,3.0,48,0.00,,---,0.00,VWS V14.01,2013-04-03 19:00:00,
2013-04-03 12:05:00,72.8,50.8,30.07,East,92,1.0,3.0,46,0.00,,---,0.00,VWS V14.01,2013-04-03 19:05:00,
2013-04-03 12:10:00,73.5,48.4,30.07,ENE,74,1.0,3.0,41,0.00,,---,0.00,VWS V14.01,2013-04-03 19:10:00,
2013-04-03 12:15:00,73.5,49.0,30.07,NW,325,0.0,4.0,42,0.00,,---,0.00,VWS V14.01,2013-04-03 19:15:00,
2013-04-03 12:20:00,72.3,48.6,30.06,NNW,338,2.0,4.0,43,0.00,,---,0.00,VWS V14.01,2013-04-03 19:20:00,
2013-04-03 12:25:00,72.3,48.6,30.06,NE,48,1.0,3.0,43,0.00,,---,0.00,VWS V14.01,2013-04-03 19:25:00,
2013-04-03 12:30:00,72.8,48.4,30.06,ENE,63,1.0,4.0,42,0.00,,---,0.00,VWS V14.01,2013-04-03 19:30:00,
2013-04-03 12:35:00,73.4,47.6,30.05,ENE,64,0.0,4.0,40,0.00,,---,0.00,VWS V14.01,2013-04-03 19:35:00,
2013-04-03 12:40:00,74.1,48.3,30.05,East,94,1.0,4.0,40,0.00,,---,0.00,VWS V14.01,2013-04-03 19:40:00,
2013-04-03 12:45:00,74.1,48.9,30.05,WNW,295,0.0,1.0,41,0.00,,---,0.00,VWS V14.01,2013-04-03 19:45:00,
2013-04-03 12:50:00,74.2,49.0,30.05,SE,128,1.0,4.0,41,0.00,,---,0.00,VWS V14.01,2013-04-03 19:50:00,
2013-04-03 12:55:00,73.9,48.7,30.04,ENE,78,1.0,3.0,41,0.00,,---,0.00,VWS V14.01,2013-04-03 19:55:00,
2013-04-03 13:00:00,73.5,48.4,30.04,NW,319,0.0,4.0,41,0.00,,---,0.00,VWS V14.01,2013-04-03 20:00:00,
2013-04-03 13:05:00,73.6,49.1,30.04,East,80,0.0,1.0,42,0.00,,---,0.00,VWS V14.01,2013-04-03 20:05:00,
2013-04-03 13:10:00,74.2,49.0,30.04,SE,145,1.0,5.0,41,0.00,,---,0.00,VWS V14.01,2013-04-03 20:10:00,
2013-04-03 13:15:00,74.9,49.6,30.04,ESE,105,5.0,5.0,41,0.00,,---,0.00,VWS V14.01,2013-04-03 20:15:00,
2013-04-03 13:20:00,75.5,49.5,30.03,East,81,2.0,5.0,40,0.00,,---,0.00,VWS V14.01,2013-04-03 20:20:00,
2013-04-03 13:25:00,75.6,48.9,30.03,East,98,2.0,4.0,39,0.00,,---,0.00,VWS V14.01,2013-04-03 20:25:00,
2013-04-03 13:30:00,75.8,49.1,30.03,ENE,78,2.0,4.0,39,0.00,,---,0.00,VWS V14.01,2013-04-03 20:30:00,
2013-04-03 13:35:00,76.1,50.0,30.03,East,98,0.0,3.0,40,0.00,,---,0.00,VWS V14.01,2013-04-03 20:35:00,
2013-04-03 13:40:00,76.4,52.9,30.03,WNW,297,0.0,3.0,44,0.00,,---,0.00,VWS V14.01,2013-04-03 20:40:00,
2013-04-03 13:45:00,76.4,54.1,30.03,North,351,2.0,4.0,46,0.00,,---,0.00,VWS V14.01,2013-04-03 20:45:00,
2013-04-03 13:50:00,76.5,53.6,30.02,NW,306,0.0,4.0,45,0.00,,---,0.00,VWS V14.01,2013-04-03 20:50:00,
2013-04-03 13:55:00,75.9,53.7,30.02,NW,304,1.0,6.0,46,0.00,,---,0.00,VWS V14.01,2013-04-03 20:55:00,
2013-04-03 14:00:00,75.1,52.9,30.02,SSW,209,0.0,6.0,46,0.00,,---,0.00,VWS V14.01,2013-04-03 21:00:00,
2013-04-03 14:05:00,75.0,54.0,30.02,West,281,0.0,4.0,48,0.00,,---,0.00,VWS V14.01,2013-04-03 21:05:00,
2013-04-03 14:10:00,75.4,53.2,30.02,NNE,21,0.0,4.0,46,0.00,,---,0.00,VWS V14.01,2013-04-03 21:10:00,
2013-04-03 14:15:00,75.9,53.7,30.01,NE,40,0.0,3.0,46,0.00,,---,0.00,VWS V14.01,2013-04-03 21:15:00,
2013-04-03 14:20:00,75.9,53.7,30.01,WSW,246,1.0,3.0,46,0.00,,---,0.00,VWS V14.01,2013-04-03 21:20:00,
2013-04-03 14:25:00,75.8,53.6,30.01,SW,217,0.0,2.0,46,0.00,,---,0.00,VWS V14.01,2013-04-03 21:25:00,
2013-04-03 14:30:00,75.7,53.5,30.01,West,275,1.0,5.0,46,0.00,,---,0.00,VWS V14.01,2013-04-03 21:30:00,
2013-04-03 14:35:00,75.5,52.7,30.01,NNE,24,1.0,5.0,45,0.00,,---,0.00,VWS V14.01,2013-04-03 21:35:00,
2013-04-03 14:40:00,75.7,52.9,30.00,ENE,61,0.0,5.0,45,0.00,,---,0.00,VWS V14.01,2013-04-03 21:40:00,
2013-04-03 14:45:00,76.1,53.2,30.00,NNE,16,0.0,3.0,45,0.00,,---,0.00,VWS V14.01,2013-04-03 21:45:00,
2013-04-03 14:50:00,76.7,53.8,30.00,NE,36,1.0,3.0,45,0.00,,---,0.00,VWS V14.01,2013-04-03 21:50:00,
2013-04-03 14:55:00,77.4,53.8,30.00,ENE,66,2.0,4.0,44,0.00,,---,0.00,VWS V14.01,2013-04-03 21:55:00,
2013-04-03 15:00:00,77.8,53.5,30.00,ENE,72,0.0,4.0,43,0.00,,---,0.00,VWS V14.01,2013-04-03 22:00:00,
2013-04-03 15:05:00,78.2,51.2,30.00,ESE,107,4.0,5.0,39,0.00,,---,0.00,VWS V14.01,2013-04-03 22:05:00,
2013-04-03 15:10:00,78.3,50.6,29.99,ESE,107,0.0,7.0,38,0.00,,---,0.00,VWS V14.01,2013-04-03 22:10:00,
2013-04-03 15:15:00,78.4,50.0,29.99,East,95,2.0,3.0,37,0.00,,---,0.00,VWS V14.01,2013-04-03 22:15:00,
2013-04-03 15:20:00,78.2,49.8,29.99,ESE,115,1.0,6.0,37,0.00,,---,0.00,VWS V14.01,2013-04-03 22:20:00,
2013-04-03 15:25:00,78.0,50.4,29.99,SSW,212,0.0,3.0,38,0.00,,---,0.00,VWS V14.01,2013-04-03 22:25:00,
2013-04-03 15:30:00,77.9,51.0,29.99,SE,138,4.0,9.0,39,0.00,,---,0.00,VWS V14.01,2013-04-03 22:30:00,
2013-04-03 15:35:00,77.6,50.7,29.98,SE,138,0.0,4.0,39,0.00,,---,0.00,VWS V14.01,2013-04-03 22:35:00,
2013-04-03 15:40:00,77.6,51.4,29.98,East,80,3.0,4.0,40,0.00,,---,0.00,VWS V14.01,2013-04-03 22:40:00,
2013-04-03 15:45:00,78.0,51.8,29.98,ESE,119,6.0,8.0,40,0.00,,---,0.00,VWS V14.01,2013-04-03 22:45:00,
2013-04-03 15:50:00,77.9,51.0,29.98,SE,142,3.0,8.0,39,0.00,,---,0.00,VWS V14.01,2013-04-03 22:50:00,
2013-04-03 15:55:00,78.0,50.4,29.98,East,99,4.0,7.0,38,0.00,,---,0.00,VWS V14.01,2013-04-03 22:55:00,
2013-04-03 16:00:00,78.0,51.1,29.98,ESE,121,5.0,7.0,39,0.00,,---,0.00,VWS V14.01,2013-04-03 23:00:00,
2013-04-03 16:05:00,78.0,51.1,29.98,ESE,115,3.0,7.0,39,0.00,,---,0.00,VWS V14.01,2013-04-03 23:05:00,
2013-04-03 16:10:00,78.0,50.4,29.98,ESE,110,0.0,7.0,38,0.00,,---,0.00,VWS V14.01,2013-04-03 23:10:00,
2013-04-03 16:15:00,77.9,49.6,29.97,East,79,2.0,6.0,37,0.00,,---,0.00,VWS V14.01,2013-04-03 23:15:00,
2013-04-03 16:20:00,78.0,49.7,29.97,ENE,71,2.0,6.0,37,0.00,,---,0.00,VWS V14.01,2013-04-03 23:20:00,
2013-04-03 16:25:00,78.0,50.4,29.97,SE,126,6.0,6.0,38,0.00,,---,0.00,VWS V14.01,2013-04-03 23:25:00,
2013-04-03 16:30:00,77.7,49.4,29.96,NE,49,0.0,6.0,37,0.00,,---,0.00,VWS V14.01,2013-04-03 23:30:00,
2013-04-03 16:35:00,77.8,50.2,29.96,SE,127,2.0,4.0,38,0.00,,---,0.00,VWS V14.01,2013-04-03 23:35:00,
2013-04-03 16:40:00,77.7,50.1,29.96,ESE,110,0.0,4.0,38,0.00,,---,0.00,VWS V14.01,2013-04-03 23:40:00,
2013-04-03 16:45:00,77.9,51.0,29.96,SE,128,1.0,3.0,39,0.00,,---,0.00,VWS V14.01,2013-04-03 23:45:00,
2013-04-03 16:50:00,78.2,51.2,29.95,SSW,213,0.0,3.0,39,0.00,,---,0.00,VWS V14.01,2013-04-03 23:50:00,
2013-04-03 16:55:00,78.1,50.5,29.95,WNW,284,0.0,3.0,38,0.00,,---,0.00,VWS V14.01,2013-04-03 23:55:00,
2013-04-03 17:00:00,78.1,52.5,29.95,WSW,254,0.0,3.0,41,0.00,,---,0.00,VWS V14.01,2013-04-04 00:00:00,
2013-04-03 17:05:00,77.9,53.0,29.95,WNW,299,4.0,5.0,42,0.00,,---,0.00,VWS V14.01,2013-04-04 00:05:00,
2013-04-03 17:10:00,77.5,53.3,29.95,SSW,207,0.0,5.0,43,0.00,,---,0.00,VWS V14.01,2013-04-04 00:10:00,
2013-04-03 17:15:00,77.2,54.8,29.95,West,271,0.0,4.0,46,0.00,,---,0.00,VWS V14.01,2013-04-04 00:15:00,
2013-04-03 17:20:00,77.1,55.3,29.95,West,271,0.0,4.0,47,0.00,,---,0.00,VWS V14.01,2013-04-04 00:20:00,
2013-04-03 17:25:00,77.0,55.2,29.95,WNW,285,0.0,1.0,47,0.00,,---,0.00,VWS V14.01,2013-04-04 00:25:00,
2013-04-03 17:30:00,76.6,55.5,29.95,WSW,258,0.0,4.0,48,0.00,,---,0.00,VWS V14.01,2013-04-04 00:30:00,
2013-04-03 17:35:00,76.1,55.6,29.95,West,281,0.0,5.0,49,0.00,,---,0.00,VWS V14.01,2013-04-04 00:35:00,
2013-04-03 17:40:00,75.6,55.1,29.95,West,263,3.0,6.0,49,0.00,,---,0.00,VWS V14.01,2013-04-04 00:40:00,
2013-04-03 17:46:00,75.0,55.1,29.95,SW,235,1.0,8.0,50,0.00,,---,0.00,VWS V14.01,2013-04-04 00:46:00,
2013-04-03 17:51:00,74.4,55.1,29.95,WNW,303,1.0,8.0,51,0.00,,---,0.00,VWS V14.01,2013-04-04 00:51:00,
2013-04-03 17:56:00,73.8,54.6,29.95,WSW,255,0.0,5.0,51,0.00,,---,0.00,VWS V14.01,2013-04-04 00:56:00,
2013-04-03 18:01:00,73.2,54.5,29.95,NW,320,0.0,5.0,52,0.00,,---,0.00,VWS V14.01,2013-04-04 01:01:00,
2013-04-03 18:05:00,73.0,54.4,29.95,West,272,0.0,3.0,52,0.00,,---,0.00,VWS V14.01,2013-04-04 01:05:00,
2013-04-03 18:10:00,72.8,54.2,29.96,WNW,291,0.0,3.0,52,0.00,,---,0.00,VWS V14.01,2013-04-04 01:10:00,
2013-04-03 18:15:00,72.6,54.0,29.96,WNW,300,2.0,4.0,52,0.00,,---,0.00,VWS V14.01,2013-04-04 01:15:00,
2013-04-03 18:20:00,72.2,53.6,29.96,West,281,1.0,5.0,52,0.00,,---,0.00,VWS V14.01,2013-04-04 01:20:00,
2013-04-03 18:25:00,71.7,53.2,29.96,WNW,294,0.0,5.0,52,0.00,,---,0.00,VWS V14.01,2013-04-04 01:25:00,
2013-04-03 18:30:00,71.1,52.6,29.96,West,261,0.0,5.0,52,0.00,,---,0.00,VWS V14.01,2013-04-04 01:30:00,
2013-04-03 18:35:00,70.5,52.6,29.96,WNW,298,0.0,1.0,53,0.00,,---,0.00,VWS V14.01,2013-04-04 01:35:00,
2013-04-03 18:40:00,70.1,52.2,29.96,NNW,334,0.0,3.0,53,0.00,,---,0.00,VWS V14.01,2013-04-04 01:40:00,
2013-04-03 18:45:00,69.9,52.5,29.96,NNW,334,0.0,0.0,54,0.00,,---,0.00,VWS V14.01,2013-04-04 01:45:00,
2013-04-03 18:50:00,69.7,52.3,29.96,NNW,334,0.0,0.0,54,0.00,,---,0.00,VWS V14.01,2013-04-04 01:50:00,
2013-04-03 18:55:00,69.4,52.0,29.96,NNW,334,0.0,0.0,54,0.00,,---,0.00,VWS V14.01,2013-04-04 01:55:00,
2013-04-03 19:00:00,69.1,52.3,29.96,NNW,334,0.0,0.0,55,0.00,,---,0.00,VWS V14.01,2013-04-04 02:00:00,
2013-04-03 19:05:00,68.7,51.9,29.96,NNW,334,0.0,0.0,55,0.00,,---,0.00,VWS V14.01,2013-04-04 02:05:00,
2013-04-03 19:10:00,68.3,53.4,29.96,NNW,334,0.0,0.0,59,0.00,,---,0.00,VWS V14.01,2013-04-04 02:10:00,
2013-04-03 19:15:00,67.7,53.3,29.96,NNW,334,0.0,0.0,60,0.00,,---,0.00,VWS V14.01,2013-04-04 02:15:00,
2013-04-03 19:20:00,67.0,53.6,29.96,NNW,333,0.0,0.0,62,0.00,,---,0.00,VWS V14.01,2013-04-04 02:20:00,
2013-04-03 19:25:00,66.3,53.3,29.96,NNW,333,0.0,0.0,63,0.00,,---,0.00,VWS V14.01,2013-04-04 02:25:00,
2013-04-03 19:30:00,65.6,53.1,29.96,NNW,333,0.0,0.0,64,0.00,,---,0.00,VWS V14.01,2013-04-04 02:30:00,
2013-04-03 19:35:00,65.0,53.0,29.96,NNW,333,0.0,0.0,65,0.00,,---,0.00,VWS V14.01,2013-04-04 02:35:00,
2013-04-03 19:40:00,64.5,52.9,29.96,NNW,333,0.0,0.0,66,0.00,,---,0.00,VWS V14.01,2013-04-04 02:40:00,
2013-04-03 19:45:00,64.0,52.4,29.96,NNW,333,0.0,0.0,66,0.00,,---,0.00,VWS V14.01,2013-04-04 02:45:00,
2013-04-03 19:50:00,63.6,52.5,29.96,NNW,333,0.0,0.0,67,0.00,,---,0.00,VWS V14.01,2013-04-04 02:50:00,
2013-04-03 19:55:00,63.3,52.6,29.97,NNW,333,0.0,0.0,68,0.00,,---,0.00,VWS V14.01,2013-04-04 02:55:00,
2013-04-03 20:00:00,62.9,52.6,29.96,NNW,333,0.0,0.0,69,0.00,,---,0.00,VWS V14.01,2013-04-04 03:00:00,
2013-04-03 20:05:00,62.5,52.2,29.96,NNW,333,0.0,0.0,69,0.00,,---,0.00,VWS V14.01,2013-04-04 03:05:00,
2013-04-03 20:10:00,62.2,51.9,29.96,NNW,333,0.0,0.0,69,0.00,,---,0.00,VWS V14.01,2013-04-04 03:10:00,
2013-04-03 20:15:00,61.9,52.0,29.96,NNW,333,0.0,0.0,70,0.00,,---,0.00,VWS V14.01,2013-04-04 03:15:00,
2013-04-03 20:20:00,61.7,51.8,29.96,NNW,333,0.0,0.0,70,0.00,,---,0.00,VWS V14.01,2013-04-04 03:20:00,
2013-04-03 20:25:00,61.4,51.9,29.96,NNW,333,0.0,0.0,71,0.00,,---,0.00,VWS V14.01,2013-04-04 03:25:00,
2013-04-03 20:30:00,61.2,51.7,29.96,NNW,333,0.0,0.0,71,0.00,,---,0.00,VWS V14.01,2013-04-04 03:30:00,
2013-04-03 20:35:00,61.0,51.9,29.97,NNW,333,0.0,0.0,72,0.00,,---,0.00,VWS V14.01,2013-04-04 03:35:00,
2013-04-03 20:40:00,60.8,51.3,29.97,SE,130,0.0,1.0,71,0.00,,---,0.00,VWS V14.01,2013-04-04 03:40:00,
2013-04-03 20:45:00,60.5,51.4,29.97,SE,130,0.0,0.0,72,0.00,,---,0.00,VWS V14.01,2013-04-04 03:45:00,
2013-04-03 20:50:00,60.3,51.2,29.97,SE,130,0.0,0.0,72,0.00,,---,0.00,VWS V14.01,2013-04-04 03:50:00,
2013-04-03 20:55:00,60.1,51.1,29.97,SE,130,0.0,0.0,72,0.00,,---,0.00,VWS V14.01,2013-04-04 03:55:00,
2013-04-03 21:00:00,59.9,51.2,29.97,SE,130,0.0,0.0,73,0.00,,---,0.00,VWS V14.01,2013-04-04 04:00:00,
2013-04-03 21:05:00,59.6,51.0,29.98,SE,130,0.0,0.0,73,0.00,,---,0.00,VWS V14.01,2013-04-04 04:05:00,
2013-04-03 21:10:00,59.3,51.0,29.98,SE,130,0.0,0.0,74,0.00,,---,0.00,VWS V14.01,2013-04-04 04:10:00,
2013-04-03 21:15:00,59.0,50.7,29.98,SE,130,0.0,0.0,74,0.00,,---,0.00,VWS V14.01,2013-04-04 04:15:00,
2013-04-03 21:20:00,59.0,51.1,29.98,SE,130,0.0,1.0,75,0.00,,---,0.00,VWS V14.01,2013-04-04 04:20:00,
2013-04-03 21:25:00,58.8,51.3,29.98,SE,130,0.0,0.0,76,0.00,,---,0.00,VWS V14.01,2013-04-04 04:25:00,
2013-04-03 21:30:00,58.5,51.0,29.99,SE,130,0.0,0.0,76,0.00,,---,0.00,VWS V14.01,2013-04-04 04:30:00,
2013-04-03 21:35:00,58.4,50.9,29.99,SE,130,0.0,0.0,76,0.00,,---,0.00,VWS V14.01,2013-04-04 04:35:00,
2013-04-03 21:40:00,58.2,50.7,29.99,SE,130,0.0,1.0,76,0.00,,---,0.00,VWS V14.01,2013-04-04 04:40:00,
2013-04-03 21:45:00,58.2,51.0,29.99,SE,130,0.0,1.0,77,0.00,,---,0.00,VWS V14.01,2013-04-04 04:45:00,
2013-04-03 21:50:00,58.2,51.0,29.99,SE,130,0.0,1.0,77,0.00,,---,0.00,VWS V14.01,2013-04-04 04:50:00,
2013-04-03 21:55:00,58.0,50.8,29.99,SE,130,0.0,0.0,77,0.00,,---,0.00,VWS V14.01,2013-04-04 04:55:00,
2013-04-03 22:00:00,57.8,50.7,30.00,SE,130,0.0,0.0,77,0.00,,---,0.00,VWS V14.01,2013-04-04 05:00:00,
2013-04-03 22:05:00,57.6,50.8,30.00,SE,130,0.0,0.0,78,0.00,,---,0.00,VWS V14.01,2013-04-04 05:05:00,
2013-04-03 22:10:00,57.5,50.7,29.99,SE,130,0.0,0.0,78,0.00,,---,0.00,VWS V14.01,2013-04-04 05:10:00,
2013-04-03 22:15:00,57.3,50.5,29.99,SE,130,0.0,0.0,78,0.00,,---,0.00,VWS V14.01,2013-04-04 05:15:00,
2013-04-03 22:20:00,57.2,50.8,29.99,SE,130,0.0,0.0,79,0.00,,---,0.00,VWS V14.01,2013-04-04 05:20:00,
2013-04-03 22:25:00,57.0,50.6,29.99,SE,130,0.0,0.0,79,0.00,,---,0.00,VWS V14.01,2013-04-04 05:25:00,
2013-04-03 22:30:00,56.9,50.5,29.99,SE,130,0.0,0.0,79,0.00,,---,0.00,VWS V14.01,2013-04-04 05:30:00,
2013-04-03 22:35:00,56.8,50.7,29.99,SE,130,0.0,0.0,80,0.00,,---,0.00,VWS V14.01,2013-04-04 05:35:00,
2013-04-03 22:40:00,56.7,50.6,29.99,SE,130,0.0,0.0,80,0.00,,---,0.00,VWS V14.01,2013-04-04 05:40:00,
2013-04-03 22:45:00,56.7,50.6,29.99,SE,130,0.0,0.0,80,0.00,,---,0.00,VWS V14.01,2013-04-04 05:45:00,
2013-04-03 22:50:00,56.6,50.5,29.99,SE,130,0.0,0.0,80,0.00,,---,0.00,VWS V14.01,2013-04-04 05:50:00,
2013-04-03 22:55:00,56.4,50.3,29.99,SE,130,0.0,1.0,80,0.00,,---,0.00,VWS V14.01,2013-04-04 05:55:00,
2013-04-03 23:00:00,56.4,50.0,29.99,SE,130,0.0,1.0,79,0.00,,---,0.00,VWS V14.01,2013-04-04 06:00:00,
2013-04-03 23:05:00,56.5,50.1,29.99,SE,130,0.0,0.0,79,0.00,,---,0.00,VWS V14.01,2013-04-04 06:05:00,
2013-04-03 23:10:00,56.5,50.1,29.99,SE,130,0.0,0.0,79,0.00,,---,0.00,VWS V14.01,2013-04-04 06:10:00,
2013-04-03 23:15:00,56.6,50.2,29.99,East,100,4.0,4.0,79,0.00,,---,0.00,VWS V14.01,2013-04-04 06:15:00,
2013-04-03 23:20:00,57.0,50.2,29.99,East,94,0.0,4.0,78,0.00,,---,0.00,VWS V14.01,2013-04-04 06:20:00,
2013-04-03 23:25:00,57.5,50.4,29.99,ESE,111,2.0,3.0,77,0.00,,---,0.00,VWS V14.01,2013-04-04 06:25:00,
2013-04-03 23:30:00,57.9,50.4,29.99,NE,55,3.0,3.0,76,0.00,,---,0.00,VWS V14.01,2013-04-04 06:30:00,
2013-04-03 23:35:00,58.3,50.8,29.99,ESE,117,2.0,2.0,76,0.00,,---,0.00,VWS V14.01,2013-04-04 06:35:00,
2013-04-03 23:40:00,58.5,50.6,29.99,ESE,121,1.0,3.0,75,0.00,,---,0.00,VWS V14.01,2013-04-04 06:40:00,
2013-04-03 23:45:00,58.7,50.5,29.99,ESE,109,2.0,3.0,74,0.00,,---,0.00,VWS V14.01,2013-04-04 06:45:00,
2013-04-03 23:50:00,58.8,50.5,29.99,SE,130,1.0,3.0,74,0.00,,---,0.00,VWS V14.01,2013-04-04 06:50:00,
2013-04-03 23:55:00,58.7,50.1,29.99,SE,126,3.0,4.0,73,0.00,,---,0.00,VWS V14.01,2013-04-04 06:55:00,